• Join FlightAware (Why Join?)
  • Login
  • US Flag 
11:57PM EDT


 

Airport Tracker/Info


-or-


 

Live Flight TrackerFlight Track Log ✈ SWA1292 ✈ 22-Mar-2013 ✈ KMSY - KEYW

Flight Track Log - Related Links

Times and Time Zones

All times are in EDT time to prevent confusion due to time zone crossing. See the SWA1292 flight status page for this flight to view local times or setup timezone preferences in your user account.

Time Position Orientation Groundspeed Altitude Reporting Facility
EDT Latitude Longitude Course Direction KTS MPH feet Rate Location/Type
12:21PM 29.9761 -90.2539 170° South 153 176 1,200  Level Houston Center
12:22PM 29.9361 -90.2458 170° South 205 236 3,200 2,460 Climbing Houston Center
12:23PM 29.8783 -90.1797 135° Southeast 244 281 6,500 2,940 Climbing Houston Center
12:24PM 29.8208 -90.1183 137° Southeast 267 307 9,900 2,940 Climbing Houston Center
12:25PM 29.7531 -90.0489 138° Southeast 297 342 12,600 2,940 Climbing Houston Center
12:27PM 29.6572 -89.9458 137° Southeast 355 409 16,100 3,120 Climbing Houston Center
12:28PM 29.5981 -89.8317 121° Southeast 407 468 19,200 2,640 Climbing Houston Center
12:29PM 29.5450 -89.7067 116° Southeast 436 502 21,600 2,280 Climbing Houston Center
12:30PM 29.4889 -89.5747 116° Southeast 454 522 24,000 2,220 Climbing Houston Center
12:31PM 29.4311 -89.4342 115° Southeast 473 544 26,300 2,220 Climbing Houston Center
12:32PM 29.3589 -89.2642 116° Southeast 490 564 28,600 1,860 Climbing Houston Center
12:33PM 29.2950 -89.1175 117° Southeast 507 583 30,200 1,500 Climbing Houston Center
12:34PM 29.2317 -88.9681 116° Southeast 519 597 31,800 1,680 Climbing Houston Center
12:35PM 29.1653 -88.8147 116° Southeast 533 613 33,700 1,800 Climbing Houston Center
12:36PM 29.1000 -88.6636 116° Southeast 532 612 35,600 1,680 Climbing Houston Center
12:37PM 29.0228 -88.4861 116° Southeast 524 603 37,200 1,320 Climbing Houston Center
12:38PM 28.9567 -88.3367 117° Southeast 526 605 38,400 840 Climbing Houston Center
12:39PM 28.8919 -88.1883 116° Southeast 525 604 39,000 240 Climbing Houston Center
12:40PM 28.8242 -88.0372 117° Southeast 526 605 39,000  Level Houston Center
12:41PM 28.7589 -87.8903 117° Southeast 524 603 39,000  Level Houston Center
12:42PM 28.6939 -87.7439 117° Southeast 521 600 39,000  Level Houston Center
12:43PM 28.6183 -87.5725 117° Southeast 511 588 39,000  Level Houston Center
12:44PM 28.5833 -87.4856 115° Southeast 492 566 39,000  Level Jacksonville Center
12:45PM 28.5133 -87.3358 118° Southeast 510 587 39,000  Level Jacksonville Center
12:46PM 28.4472 -87.1939 118° Southeast 515 593 39,000  Level Jacksonville Center
12:47PM 28.3850 -87.0542 117° Southeast 501 577 39,000  Level Jacksonville Center
12:48PM 28.3206 -86.9172 118° Southeast 517 595 39,000  Level Jacksonville Center
12:49PM 28.2444 -86.7494 117° Southeast 522 601 39,000  Level Jacksonville Center
12:50PM 28.1817 -86.6103 117° Southeast 515 593 39,000  Level Jacksonville Center
12:51PM 28.1150 -86.4644 117° Southeast 510 587 39,000  Level Jacksonville Center
12:52PM 28.0481 -86.3186 117° Southeast 510 587 39,000  Level Jacksonville Center
12:53PM 27.9828 -86.1803 118° Southeast 504 580 39,000  Level Jacksonville Center
12:54PM 27.9175 -86.0419 118° Southeast 509 586 39,000  Level Jacksonville Center
12:55PM 27.8519 -85.8992 117° Southeast 509 586 39,000  Level Jacksonville Center
12:56PM 27.7864 -85.7611 118° Southeast 509 586 39,000  Level Jacksonville Center
12:57PM 27.7469 -85.6647 115° Southeast 493 567 39,000  Level Miami Center
12:58PM 27.6806 -85.5261 118° Southeast 492 566 39,000  Level Miami Center
12:59PM 27.6153 -85.3972 120° Southeast 499 574 39,000  Level Miami Center
01:00PM 27.5764 -85.2447 106° East 505 581 39,000  Level Miami Center
01:01PM 27.5461 -85.0836 102° East 506 582 39,000  Level Miami Center
01:02PM 27.5022 -84.9378 109° East 506 582 39,000  Level Miami Center
01:03PM 27.4019 -84.8281 136° Southeast 479 551 39,000  Level Miami Center
01:04PM 27.3036 -84.7208 136° Southeast 484 557 39,000  Level Miami Center
01:05PM 27.2069 -84.6164 136° Southeast 484 557 39,000  Level Miami Center
01:06PM 27.1108 -84.5075 135° Southeast 490 564 39,000  Level Miami Center
01:07PM 27.0164 -84.3964 134° Southeast 490 564 39,000  Level Miami Center
01:08PM 26.9117 -84.2850 137° Southeast 497 572 39,000  Level Miami Center
01:09PM 26.8192 -84.1792 134° Southeast 497 572 39,000  Level Miami Center
01:10PM 26.7142 -84.0681 137° Southeast 503 579 39,000  Level Miami Center
01:11PM 26.6211 -83.9647 135° Southeast 503 579 39,000  Level Miami Center
01:12PM 26.5242 -83.8592 136° Southeast 495 570 39,000  Level Miami Center
01:13PM 26.4289 -83.7564 136° Southeast 483 556 39,000  Level Miami Center
01:14PM 26.3358 -83.6514 135° Southeast 478 550 39,000  Level Miami Center
01:15PM 26.2422 -83.5511 136° Southeast 479 551 39,000 -360 Level Miami Center
01:16PM 26.1469 -83.4486 136° Southeast 478 550 38,300 -1,500 Descending Miami Center
01:17PM 26.0533 -83.3464 136° Southeast 478 550 36,100 -2,400 Descending Miami Center
01:18PM 25.9558 -83.2419 136° Southeast 478 550 33,600 -2,400 Descending Miami Center
01:19PM 25.8661 -83.1403 134° Southeast 478 550 31,400 -2,100 Descending Miami Center
01:20PM 25.7700 -83.0453 138° Southeast 468 539 29,400 -1,980 Descending Miami Center
01:21PM 25.6822 -82.9486 135° Southeast 463 533 27,500 -1,920 Descending Miami Center
01:22PM 25.5938 -82.8597 135° Southeast  Level FlightAware Approximate
01:22PM 25.5922 -82.8544 135° Southeast 450 518 25,600  Level Miami Center
01:23PM 25.5103 -82.7653 136° Southeast 439 505 23,900 -1,020 Descending Miami Center
01:24PM 25.4342 -82.6833 136° Southeast 413 475 23,600 -1,560 Descending Miami Center
01:25PM 25.3561 -82.6014 137° Southeast 393 452 20,800 -2,580 Descending Miami Center
01:26PM 25.2758 -82.5150 136° Southeast 393 452 18,500 -2,100 Descending Miami Center
01:27PM 25.1978 -82.4311 136° Southeast 393 452 16,700 -1,800 Descending Miami Center
01:28PM 25.1192 -82.3519 138° Southeast 388 447 14,900 -1,800 Descending Miami Center
01:29PM 25.0469 -82.2731 135° Southeast 378 435 13,100 -1,800 Descending Miami Center
01:30PM 24.9764 -82.2011 137° Southeast 367 422 11,400 -1,560 Descending Miami Center
01:31PM 24.9081 -82.1297 137° Southeast 353 406 10,000 -1,560 Descending Miami Center
01:32PM 24.8369 -82.0786 147° Southeast 325 374 8,300 -1,800 Descending Miami Center
01:33PM 24.7650 -82.0411 155° Southeast 302 348 6,400 -1,860 Descending Miami Center
01:34PM 24.6956 -82.0017 153° Southeast 288 331 4,600 -1,620 Descending Miami Center
01:35PM 24.6233 -81.9714 159° South 275 316 3,200 -1,080 Descending Miami Center
01:36PM 24.5633 -81.9572 168° South 252 290 2,500 -660 Descending Miami Center
01:37PM 24.5550 -81.8978 99° East 177 204 1,900 -600 Descending Miami Center
01:38PM 24.5544 -81.8497 91° East 157 181 1,300 -600 Descending Miami Center
01:39PM 24.5558 -81.8086 88° East 142 163 800 -540 Descending Miami Center
01:40PM 24.5561 -81.7596 129° Southeast  Level Estimated
01:47PM 24.5561 -81.7596 129° Southeast  Level Estimated
01:48PM 24.5561 -81.7596 129° Southeast  Level Estimated